Regional Weather Roundup
Issued by NWS

Home | Current Version | Previous Version | Text Only | Print | Product List | Glossary On
Versions: 1 2 3 4 5 6 7 8 9 10 11 12 13 14 15 16 17 18 19 20 21 22 23 24 25 26 27 28 29 30 31 32 33 34 35 36 37 38 39 40 41 42 43 44 45 46 47 48 49 50
000
ASUS43 KMKX 030921
RWRWI

WISCONSIN REGIONAL WEATHER ROUNDUP
NATIONAL WEATHER SERVICE MILWAUKEE/SULLIVAN WI
400 AM CDT TUE AUG 03 2021

NOTE: "FAIR" INDICATES FEW OR NO CLOUDS BELOW 12,000 FEET WITH NO
SIGNIFICANT WEATHER AND/OR OBSTRUCTIONS TO VISIBILITY.

WIZ001-002-006>008-014>016-023>028-031000-
NORTHWEST WISCONSIN

CITY           SKY/WX    TMP DP  RH WIND       PRES   REMARKS
SUPERIOR ARPT  CLOUDY    61  55  81 SW7       30.03F
ASHLAND        MOCLDY    63  55  75 SW8       30.03S
HAYWARD        CLEAR     51  48  89 CALM      30.08R FOG
SIREN          NOT AVBL
CUMBERLAND     CLEAR     52  50  93 CALM      30.09S
RICE LAKE      CLEAR     55  55 100 CALM      30.10S FOG
CHETEK         CLEAR     57  56  99 CALM      30.09S
LADYSMITH        N/A     55  55 100 CALM      30.10S
EAU CLAIRE     CLEAR     61  57  87 SW3       30.08S
MENOMONIE        N/A     53  52  99 CALM      30.09S
NEW RICHMOND   CLEAR     56  53  91 CALM      30.10S
OSCEOLA        CLEAR     56  55  98 CALM      30.12S
$$

WIZ003>005-009-010-017-018-031000-
NORTH CENTRAL WISCONSIN

CITY           SKY/WX    TMP DP  RH WIND       PRES   REMARKS
MANITOWISH WTR FOG       50  50 100 CALM      30.08R VSB 1/4
ARBOR VITAE    CLEAR     57  45  64 CALM      30.08S
WOODRUFF       CLEAR     57  45  64 CALM      30.08S
RHINELANDER    CLEAR     57  55  93 W7        30.09S
EAGLE RIVER    FOG       53  53 100 CALM      30.08R VSB 3/4
LAND O LAKES     N/A     48  48 100 CALM      30.09S FOG
PHILLIPS       CLEAR     53  53 100 CALM      30.09R
TOMAHAWK       CLEAR     50  49  98 CALM      30.09S
MEDFORD        CLEAR     57  56  97 SW3       30.10S
MERRILL        CLEAR     53  53 100 CALM      30.09S
$$

WIZ029-030-035-036-043>047-031000-
CENTRAL WISCONSIN

CITY           SKY/WX    TMP DP  RH WIND       PRES   REMARKS
WAUSAU         CLEAR     63  57  81 CALM      30.08R
MOSINEE        CLEAR     55  55 100 CALM      30.11R
MARSHFIELD     CLEAR     59  55  87 W5        30.10R
STEVENS POINT  CLEAR     55  55 100 CALM      30.11R
WAUPACA        MOCLDY    58  56  93 CALM      30.09S
WAUTOMA        CLEAR     54  53  97 CALM      30.11R
WISC RAPIDS    CLEAR     57  56  96 CALM      30.10S
CAMP DOUGLAS   CLEAR     52  51  96 CALM      30.10R
$$

WIZ011>013-019>022-031-037>040-048>050-031000-
NORTHEAST WISCONSIN

CITY           SKY/WX    TMP DP  RH WIND       PRES   REMARKS
ANTIGO         CLEAR     54  53  99 CALM      30.10S
SHAWANO        CLEAR     59  57  94 CALM      30.07S
OCONTO         MOCLDY    58  57  96 W3        30.06S
STURGEON BAY   CLOUDY    64  59  83 W7        30.06S
GREEN BAY      MOCLDY    58  56  93 CALM      30.07S
MANITOWOC      CLEAR     61  58  90 SW8       30.08S
APPLETON       PTCLDY    59  54  82 W7        30.07S
CLINTONVILLE   PTCLDY    56  54  92 CALM      30.08S
OSHKOSH        CLEAR     61  55  81 SW5       30.08S
$$

WIZ032>034-041-042-053>061-031000-
SOUTHWEST WISCONSIN

CITY           SKY/WX    TMP DP  RH WIND       PRES   REMARKS
LA CROSSE      CLEAR     64  61  90 S7        30.10S
SPARTA           N/A     48  47  99 CALM      30.12R
VIROQUA        CLEAR     60  57  91 SW5       30.13R
BOSCOBEL       FOG       55  54  96 CALM      30.12S VSB 1/2
PRAIRIE DU CHI CLEAR     56  53  89 CALM      30.12S
PLATTEVILLE    CLEAR     58  56  92 CALM      30.13S
$$

WIZ056-057-062-063-064-067-068-031000-
SOUTH CENTRAL WISCONSIN

CITY           SKY/WX    TMP DP  RH WIND       PRES   REMARKS
REEDSBURG      CLEAR     55  55 100 CALM      30.11S
BARABOO/DELLS  CLEAR     53  52  97 CALM      30.11S
LONE ROCK      PTCLDY    52  50  93 CALM      30.12R FOG
MINERAL POINT  CLEAR     61  50  67 CALM      30.13S
MADISON        CLEAR     54  52  93 CALM      30.11R
MIDDLETON      CLEAR     52  50  93 CALM      30.12R
WATERTOWN      CLEAR     53  53 100 CALM      30.10F
MONROE         CLEAR     63  49  60 W5        30.11S
JANESVILLE     FOG       55  55 100 CALM      30.12S VSB 1/2
$$

WIZ051-052-058>065-066-070>072-031000-
SOUTHEAST WISCONSIN

CITY           SKY/WX    TMP DP  RH WIND       PRES   REMARKS
MILWAUKEE      CLEAR     65  55  70 W6        30.10S
WAUKESHA       CLEAR     54  50  87 CALM      30.12S
MILWAUKEE/TIMM CLEAR     59  50  72 CALM      30.11S
RACINE         CLEAR     61  56  83 W3        30.12S
KENOSHA        CLEAR     58  54  86 W5        30.11S FOG
FOND DU LAC    CLEAR     60  53  77 S6        30.10S
SHEBOYGAN      CLEAR     59  54  83 W6        30.09S
WEST BEND      CLEAR     52  52 100 CALM      30.10S
JUNEAU         CLEAR     55  53  96 CALM      30.12S
$$

LSZ147-162-031000-
LAKE SUPERIOR

STATION/POSITION TIME  TEMP    WIND        PRES    WAVE
                       AIR SEA DIR/SP/G            HT/PER
                 (UTC) (F)     (DEG/KT/KT) (MB)    (FT/S)
W MID LAKE BUOY  0900   67     260/ 14/ 16 1015.4
DEVILS ISLAND    0900   69                 1015.8R
PORT WING        0830   66     180/  6/  7 1016.6S
SAXON HARBOR     0840   65     190/  7/ 10 1015.9R
$$

LMZ867-665-643>646-031000-
LAKE MICHIGAN

STATION/POSITION TIME  TEMP    WIND        PRES    WAVE
                       AIR SEA DIR/SP/G            HT/PER
                 (UTC) (F)     (DEG/KT/KT) (MB)    (FT/S)
CHAMBERS ISLAND  0830   66     190/  6/  8   N/A
S GREEN BAY BUOY 0900   75 72  250/ 10/ 14 1017.1    1/ 3
N MID LAKE BUOY  0900   67     240/ 10/ 12 1016.9
NORTHPORT PIER   0830   67     250/  6/  9 1017.3S
KEWAUNEE LAKESHO 0836   63     290/  5/  8 1016.6S
SHEBOYGAN LAKESH 0900   64     250/ 11/ 13   N/A
PORT WASHINGTON  0830   64     270/  5/  8 1020.0S
ATWATER BUOY     0900   67 70  240/ 12/ 14 1019.3    1
MILWAUKEE LAKESH 0900   64     260/  5/  6   N/A
S MID LAKE BUOY  0900   70     210/  6/  8 1019.2
KENOSHA   LAKESH 0900   65     260/  4/  6 1019.0
$$

TC  - TEMPERATURE IN CELSIUS
VSB - VISIBILITY IN STATUTE MILES
WCI - WIND CHILL INDEX
HX  - HEAT INDEX




USA.gov is the U.S. government's official web portal to all federal, state and local government web resources and services.